Погода Баку

Погода Баку : погода сейчас, прогноз погоды и архив. Всё, что Вы хотите узнать о погоде Баку!

Поиск расширенной информации на нашем сайте:

Другие новости

Новости СМИ2

Главная страница сайта

Новости сайта

03.07.2017

Напоминаем, что на нашем специализированном сайте Метеоцентр.Азия вы можете получить высокодетализированные автоматические прогнозы погоды по пунктам России, СНГ и мира в авиационном формате (включающие направление и скорость ветра, видимость, явления погоды, количество и форму облачности, нижнюю и верхнюю границу облачности).


Погода Баку - сегодня

Время (UTC), дата Ветер
(°,м/с) 
Видим.   Явления Облачность Т
(°С)
Тd
(°С)
f(%) Тe
(°С)
Pmin
(гПа)
dP
(гПа)
Po
(мм)
O2
(г/м3)
Тmin Tmax R s Состояние
почвы
21 14.11.18 тихо ()   20000 м    10/10 600 м 
[Sc]
+8.4 +1.9 64 +8  1026.3  -1.5  764  298           
00 15.11.18 тихо ()   20000 м    10/10 600 м 
[Sc]
+8.8 +3.2 68 +9  1025  -1.3  763  297           
03 15.11.18 тихо ()   20000 м    10/10 600 м 
[Sc]
+9 +3.4 68 +9  1024.2  -0.8  763  297           
09 15.11.18 050 (СВ) 20000 м    10/0 средняя 
[As op]
+12.5 +6.7 68 +13  1023.8  763  293           
12 15.11.18 050 (СВ) 20000 м    ясно 
+13.4 +5.3 58 +13  1022.6  -1.2  762  292           
15 15.11.18 050 (СВ) 20000 м    ясно 
+12.4 +7 70 +13  1023.1  0.5  762  293           
21 15.11.18 050 (СВ) 18000 м    9/9 600 м 
[Sc]
+11.5 +6.4 71 +12  1023.2  -0.3  762  294           
00 16.11.18 тихо ()   20000 м    8/0 средняя 
[Ac As]
+10.5 +6.7 77 +11  1023.2  762  295           
03 16.11.18 тихо ()   20000 м    5/0 средняя 
[Ac trans]
+10.1 +6.5 78 +10  1023.2  762  295           
06 16.11.18 050 (СВ) 20000 м    10/0 верхняя 
[Cs]
+12.6 +6.5 66 +13  1025.3  2.2  764  293  +9.9         
09 16.11.18 050 (СВ) 20000 м    10/0 верхняя 
[Cs]
+14.9 +5.9 55 +15  1024.4  0.9  763  291           
12 16.11.18 050 (СВ) 20000 м    6/0 верхняя 
[Cs]
+14.4 +5.6 55 +15  1023.7  0.7  763  291           
15 16.11.18 050 (СВ) 20000 м    8/4 600 м средняя 
[Sc|Ac trans]
+12.5 +7.6 72 +12  1024.2  0.5  763  293           
18 16.11.18 тихо ()   20000 м    4/0 средняя 
[Ac trans]
+9.8 +6.5 80 +10  1025.5  1.1  764  296    +15.6       
21 16.11.18 060 (СВ) 20000 м    6/0 верхняя 
[Cs]
+8.2 +5.1 81 +8  1025.2  -0.3  763  298           
00 17.11.18 060 (СВ) 20000 м    ясно 
+7.8 +4.8 81 +8  1024.8  -0.5  763  298           
03 17.11.18 тихо ()   20000 м    10/10 600 м 
[Sc]
+10.3 +5.9 74 +10  1024.3  -0.3  763  295           
09 17.11.18 тихо ()   20000 м    10/10 600 м 
[Sc]
+15 +6.5 57 +15  1023.5  -1.4  762  290           
12 17.11.18 тихо ()   20000 м    10/10 600 м 
[Sc]
+14.3 +7.8 65 +14  1022.7  -0.8  762  290           
15 17.11.18 тихо ()   20000 м    10/10 600 м 
[Sc]
+13.1 +8.2 72 +13  1024.4  1.6  763  292           
18 17.11.18 тихо ()   20000 м    10/10 600 м 
[Sc]
+12.5 +8.6 77 +13  1026  1.5  764  293    +15.2       
21 17.11.18 320 (СЗ) 20000 м    10/10 600 м 
[Sc]
+10.8 +7.4 79 +11  1026  764  295           
00 18.11.18 320 (СЗ) 20000 м    10/10 600 м 
[Sc]
+10.9 +7.4 79 +10  1026  764  295           
03 18.11.18 320 (СЗ) 20000 м    8/8 600 м 
[Sc]
+10.1 +6.7 79 +9  1026  764  296           
09 18.11.18 340 (С) 20000 м    10/5 600 м средняя 
[Frnb|Ac As]
+12.4 +6.5 67 +12  1025.2  -0.9  763  293           
Время (UTC), дата Ветер
(°,м/с) 
Видим.   Явления Облачность Т
(°С)
Тd
(°С)
f(%) Тe
(°С)
Pmin
(гПа)
dP
(гПа)
Po
(мм)
O2
(г/м3)
Тmin Tmax R s Состояние
почвы

Для получения пояснительной информации подведите курсор к названию столбца.

ПОГОДА Баку - архив

Всё, что Вы хотите узнать о погоде Баку - удобно и подробно!

Выберите нужную дату (начиная с 1 января 2015* года) и нажмите кнопку "Найти".
Будут отображены архивные сводки погоды по пункту Баку, начиная с указанной даты.


Отображать данные в формате CSV (для использования в таблицах Excel)


Внимание! Наш архив погоды предназначен исключительно для личного некоммерческого использования в познавательных целях. Если Вам необходимы официальные справки о состоянии погоды (для производственных, юридических, коммерческих и т.п. целей), обращайтесь в органы Росгидромета.

*Примечание: данная дата относится к архиву по метеостанциям СССР (Россия, СНГ, Балтия).
Архив по метеостанциям Зарубежной Европы и Азии (кроме Китая) хранится 10 дней, по другим регионам земного шара (Китай, Африка, Америка, Австралия, Океания) - 1 день.

Баку - район местоположения метеостанции


Название, широта, долгота, высота метеостанции:
Баку (Дендропарк) 40.4°ш. 49.8°д. 61 м над ур. моря [Азербайджан]

Дополнительная информация

В oтличие oт бoльшинства пoгoдных сайтoв мы публикуем пoдрoбную метеoинфoрмацию в детальнoм прoфессиoнальнoм фoрмате.

Характеристики температуры и влажнoсти вoздуха измеряются на высoте 2 м в тени вдали oт зданий и деревьев.
Скoрoсть ветра измеряется на высoте 10 м (на урoвне рoста челoвека скoрoсть ветра ниже в 1.5-2 раза). Если метеoстанция нахoдится в гoрoде или в лесу, тo скoрoсть ветра занижена на 2-4 м/с пo сравнению с oткрытым местoм. Скoрoсть ветра над акватoриями крупных рек и oзёр, а также на вершинах хoлмoв на 2-5 м/с выше, чем в oбычных услoвиях.
Атмoсфернoе давление в разных тoчках местнoсти мoжет значительнo oтличаться oт давления на метеoстанции, в зависимoсти oт услoвий рельефа (при пoдъёме на 10 м давление пoнижается примернo на 1 мм рт.ст.).